Language: 


Des rapports , des résumés tant et plus, au choix de chacun....


Données statistiques de la station
Quotidien Rapport Juillet 4, 2017 Unités:  Anglais    Métrique   les deux
« Précédent Jour
Suivant Jour »
Quotidien Hebdomadaire Mensuel Annuel Actuel
  Haut: Bas: Moyen:
Température: 83.8 °F 56.5 °F 67.8 °F
Pt de rosée: 66.2 °F 55.4 °F 59.9 °F
Humidité: 97 % 45 % 77 %
Vitesse du vent: 7.6 mph 0 mph 2.1 mph
Rafales: 9.8 mph - -
Vent:- - SW
Pression: 30.2 in 30.1 in -
Précipitation: 0 in    
Historical Graphs
 
 
Données statistiques pour Juillet 4, 2017
Heure Température Point de rosée Pression Vent Vitesse du vent Refales Humidité Pluie (taux horaire)
00:02 61 °F 57.2 °F 30.2 in Calm   7.8 mph 89 % 0 in
00:08 61 °F 57.2 °F 30.2 in WSW 7.6 mph 9.8 mph 90 % 0 in
00:13 61.2 °F 59 °F 30.2 in WSW 5.8 mph 9.8 mph 90 % 0 in
00:18 61.2 °F 59 °F 30.2 in SW 4.3 mph 8.5 mph 90 % 0 in
00:23 61.2 °F 59 °F 30.2 in WSW 5.8 mph 9.8 mph 90 % 0 in
00:28 61 °F 57.2 °F 30.2 in WSW 6 mph 9.8 mph 90 % 0 in
00:33 61 °F 57.2 °F 30.2 in WSW 7.4 mph 9.8 mph 90 % 0 in
00:38 60.6 °F 59 °F 30.2 in West 5.6 mph 8.5 mph 91 % 0 in
00:43 60.4 °F 57.2 °F 30.2 in WSW 4 mph 7.4 mph 91 % 0 in
00:48 60.3 °F 57.2 °F 30.2 in Calm   6.5 mph 91 % 0 in
00:53 59.9 °F 57.2 °F 30.2 in SW 5.8 mph 6.9 mph 91 % 0 in
00:58 59.7 °F 57.2 °F 30.2 in WSW 4.9 mph 6.9 mph 91 % 0 in
01:03 59.5 °F 57.2 °F 30.2 in WSW 4.3 mph 6 mph 92 % 0 in
01:08 59.4 °F 57.2 °F 30.2 in West 3.8 mph 5.8 mph 92 % 0 in
01:13 59.2 °F 57.2 °F 30.2 in WSW 6 mph 6.5 mph 92 % 0 in
01:18 59 °F 57.2 °F 30.2 in WSW 3.4 mph 6.5 mph 92 % 0 in
01:23 58.6 °F 55.4 °F 30.2 in WSW 3.8 mph 6 mph 92 % 0 in
01:28 58.5 °F 57.2 °F 30.2 in SW 4.3 mph 4.9 mph 93 % 0 in
01:33 58.3 °F 57.2 °F 30.2 in Calm   4.9 mph 93 % 0 in
01:38 58.1 °F 57.2 °F 30.2 in Calm   5.4 mph 93 % 0 in
01:43 58.1 °F 57.2 °F 30.2 in Calm   5.6 mph 93 % 0 in
01:48 58.3 °F 57.2 °F 30.2 in SSW 2.7 mph 6 mph 94 % 0 in
01:54 58.1 °F 57.2 °F 30.2 in WSW 5.4 mph 6 mph 94 % 0 in
01:59 58.1 °F 57.2 °F 30.2 in WSW 5.8 mph 6 mph 94 % 0 in
02:04 58.1 °F 57.2 °F 30.2 in WSW 4.5 mph 6 mph 94 % 0 in
02:09 58.1 °F 57.2 °F 30.2 in WSW 2.9 mph 6.3 mph 94 % 0 in
02:14 58.1 °F 57.2 °F 30.2 in WSW 3.8 mph 6.3 mph 94 % 0 in
02:19 58.1 °F 57.2 °F 30.1 in WSW 5.4 mph 6.3 mph 95 % 0 in
02:20 58.1 °F 57.2 °F 30.1 in WSW 4.9 mph 6.3 mph 95 % 0 in
02:25 58.1 °F 57.2 °F 30.1 in WSW 5.6 mph 6.3 mph 95 % 0 in
02:30 58.1 °F 57.2 °F 30.1 in Calm   5.8 mph 95 % 0 in
02:35 57.9 °F 57.2 °F 30.1 in WSW 3.8 mph 6 mph 95 % 0 in
02:41 57.7 °F 57.2 °F 30.1 in Calm   6 mph 95 % 0 in
02:46 57.7 °F 57.2 °F 30.1 in WSW 2.7 mph 5.4 mph 95 % 0 in
02:51 57.6 °F 57.2 °F 30.2 in Calm   3.8 mph 95 % 0 in
02:56 57.4 °F 55.4 °F 30.2 in Calm   3.8 mph 94 % 0 in
03:01 57.2 °F 55.4 °F 30.1 in SSW 1.1 mph 3.4 mph 94 % 0 in
03:06 57 °F 55.4 °F 30.1 in Calm   4 mph 95 % 0 in
03:11 56.8 °F 55.4 °F 30.1 in Calm   4 mph 95 % 0 in
03:16 56.8 °F 55.4 °F 30.1 in SW 2.9 mph 2.9 mph 95 % 0 in
03:21 56.8 °F 55.4 °F 30.1 in WSW 3.6 mph 3.6 mph 95 % 0 in
03:26 56.8 °F 55.4 °F 30.1 in Calm   4.3 mph 96 % 0 in
03:31 56.8 °F 55.4 °F 30.1 in Calm   4.3 mph 96 % 0 in
03:36 56.8 °F 55.4 °F 30.1 in SW 2.5 mph 4 mph 96 % 0 in
03:41 56.7 °F 55.4 °F 30.1 in SW 2.5 mph 3.6 mph 95 % 0 in
03:43 56.7 °F 55.4 °F 30.1 in Calm   4.7 mph 96 % 0 in
03:48 56.5 °F 55.4 °F 30.1 in Calm   4.7 mph 95 % 0 in
03:53 56.5 °F 55.4 °F 30.1 in Calm   3.1 mph 95 % 0 in
03:58 56.7 °F 55.4 °F 30.1 in Calm   4.3 mph 96 % 0 in
04:03 56.8 °F 55.4 °F 30.2 in Calm   4.3 mph 96 % 0 in
04:08 57.2 °F 57.2 °F 30.2 in West 2.7 mph 3.4 mph 96 % 0 in
04:13 57.6 °F 57.2 °F 30.2 in West 3.4 mph 7.8 mph 96 % 0 in
04:18 57.7 °F 57.2 °F 30.2 in West 4.3 mph 7.8 mph 96 % 0 in
04:23 57.9 °F 57.2 °F 30.2 in WSW 4.9 mph 6.5 mph 96 % 0 in
04:28 58.1 °F 57.2 °F 30.2 in WSW 6 mph 9.8 mph 97 % 0 in
04:33 58.1 °F 57.2 °F 30.1 in WSW 5.8 mph 9.8 mph 97 % 0 in
04:38 58.3 °F 57.2 °F 30.1 in SW 6.5 mph 7.4 mph 97 % 0 in
04:43 58.3 °F 57.2 °F 30.1 in WSW 4.9 mph 6.5 mph 97 % 0 in
04:48 58.5 °F 57.2 °F 30.1 in West 7.6 mph 7.8 mph 97 % 0 in
04:53 58.5 °F 57.2 °F 30.1 in West 3.8 mph 7.8 mph 97 % 0 in
04:58 58.5 °F 57.2 °F 30.1 in SW 4 mph 7.6 mph 96 % 0 in
05:04 58.5 °F 57.2 °F 30.1 in Calm   6.3 mph 96 % 0 in
05:09 58.6 °F 57.2 °F 30.1 in WSW 5.6 mph 8.7 mph 97 % 0 in
05:14 58.6 °F 57.2 °F 30.1 in WSW 6 mph 8.7 mph 97 % 0 in
05:19 58.8 °F 59 °F 30.1 in West 7.2 mph 7.2 mph 97 % 0 in
05:24 58.8 °F 59 °F 30.1 in WSW 5.6 mph 7.6 mph 97 % 0 in
05:29 58.8 °F 59 °F 30.1 in West 4 mph 7.4 mph 97 % 0 in
05:34 58.8 °F 59 °F 30.1 in West 4.9 mph 7.4 mph 97 % 0 in
05:39 58.8 °F 59 °F 30.1 in WSW 6 mph 7.4 mph 97 % 0 in
05:44 58.8 °F 59 °F 30.1 in West 5.4 mph 6.5 mph 97 % 0 in
05:49 58.8 °F 59 °F 30.1 in Calm   6.5 mph 97 % 0 in
06:45 59.4 °F 59 °F 30.2 in WSW 2.7 mph 5.8 mph 96 % 0 in
06:50 59.5 °F 59 °F 30.2 in West 2.7 mph 5.8 mph 96 % 0 in
06:55 59.5 °F 59 °F 30.2 in WSW 0.9 mph 6.5 mph 96 % 0 in
07:00 59.5 °F 59 °F 30.2 in WSW 3.6 mph 6.5 mph 96 % 0 in
07:05 59.7 °F 59 °F 30.2 in Calm   4.9 mph 96 % 0 in
07:10 59.7 °F 59 °F 30.2 in WSW 1.6 mph 5.4 mph 96 % 0 in
07:15 59.9 °F 59 °F 30.2 in WSW 4.3 mph 5.6 mph 96 % 0 in
07:20 59.9 °F 59 °F 30.2 in Calm   5.6 mph 96 % 0 in
07:25 60.1 °F 59 °F 30.2 in West 2 mph 5.6 mph 96 % 0 in
07:30 60.1 °F 59 °F 30.2 in Calm   5.6 mph 96 % 0 in
07:35 60.1 °F 59 °F 30.2 in WSW 1.6 mph 3.6 mph 96 % 0 in
07:40 60.3 °F 59 °F 30.2 in West 1.6 mph 6 mph 96 % 0 in
07:45 60.4 °F 59 °F 30.2 in Calm   6 mph 95 % 0 in
07:50 60.6 °F 59 °F 30.1 in Calm     95 % 0 in
07:55 60.6 °F 59 °F 30.1 in Calm   2.7 mph 95 % 0 in
08:00 60.8 °F 59 °F 30.1 in Calm   2.7 mph 95 % 0 in
08:05 61 °F 59 °F 30.2 in Calm   3.6 mph 95 % 0 in
08:10 61 °F 59 °F 30.2 in Calm   3.6 mph 95 % 0 in
08:15 61.2 °F 60.8 °F 30.2 in Calm     95 % 0 in
08:20 61.3 °F 59 °F 30.2 in Calm     94 % 0 in
08:25 61.5 °F 59 °F 30.2 in Calm     94 % 0 in
08:31 61.9 °F 60.8 °F 30.2 in Calm     94 % 0 in
08:36 62.1 °F 60.8 °F 30.1 in Calm     94 % 0 in
08:41 62.2 °F 60.8 °F 30.1 in SSW 3.6 mph 4.3 mph 94 % 0 in
08:46 62.6 °F 60.8 °F 30.2 in Calm   4.3 mph 93 % 0 in
08:51 62.6 °F 60.8 °F 30.2 in Calm   2.5 mph 93 % 0 in
08:56 62.6 °F 60.8 °F 30.2 in Calm   2.5 mph 93 % 0 in
09:01 62.8 °F 60.8 °F 30.1 in Calm   2.2 mph 92 % 0 in
09:06 63 °F 60.8 °F 30.1 in Calm   2.2 mph 92 % 0 in
09:11 63.1 °F 60.8 °F 30.1 in Calm     92 % 0 in
09:16 63.1 °F 60.8 °F 30.1 in Calm     92 % 0 in
09:21 63.1 °F 60.8 °F 30.1 in SSE 2.7 mph 4.3 mph 92 % 0 in
09:26 63.1 °F 60.8 °F 30.1 in Calm   4.3 mph 92 % 0 in
09:31 63.3 °F 60.8 °F 30.1 in Calm   2.9 mph 92 % 0 in
09:36 63.3 °F 60.8 °F 30.1 in South 3.6 mph 4.3 mph 91 % 0 in
09:41 63.3 °F 60.8 °F 30.1 in Calm   4.3 mph 91 % 0 in
09:46 63.5 °F 60.8 °F 30.2 in Calm   3.1 mph 91 % 0 in
09:51 63.5 °F 60.8 °F 30.2 in Calm     91 % 0 in
09:56 63.7 °F 60.8 °F 30.2 in Calm   4.7 mph 91 % 0 in
10:01 63.7 °F 60.8 °F 30.2 in SE 3.1 mph 4.7 mph 91 % 0 in
10:06 63.9 °F 60.8 °F 30.2 in South 4.7 mph 6.5 mph 90 % 0 in
10:11 64 °F 60.8 °F 30.2 in Calm   6.5 mph 90 % 0 in
10:16 64.2 °F 60.8 °F 30.1 in SSW 0.9 mph 5.8 mph 90 % 0 in
10:21 64.4 °F 60.8 °F 30.1 in Calm   5.6 mph 90 % 0 in
10:26 64.8 °F 62.6 °F 30.1 in Calm   3.6 mph 89 % 0 in
10:31 64.8 °F 62.6 °F 30.1 in SW 2.5 mph 5.6 mph 89 % 0 in
10:36 64.9 °F 62.6 °F 30.1 in SSW 4.3 mph 5.6 mph 89 % 0 in
10:41 64.9 °F 62.6 °F 30.1 in South 3.6 mph 4.3 mph 89 % 0 in
10:45 65.1 °F 62.6 °F 30.1 in Calm   4.3 mph 89 % 0 in
10:50 65.5 °F 62.6 °F 30.2 in Calm   4.9 mph 88 % 0 in
10:55 65.7 °F 62.6 °F 30.2 in Calm   4.9 mph 88 % 0 in
11:00 66 °F 62.6 °F 30.2 in Calm   4 mph 88 % 0 in
11:05 66.2 °F 62.6 °F 30.1 in Calm   3.6 mph 87 % 0 in
11:10 66.6 °F 62.6 °F 30.1 in South 2.5 mph 3.4 mph 87 % 0 in
11:15 66.7 °F 62.6 °F 30.1 in SSE 2.2 mph 5.8 mph 85 % 0 in
11:20 67.3 °F 62.6 °F 30.2 in South 4.5 mph 5.8 mph 85 % 0 in
11:25 67.8 °F 64.4 °F 30.2 in South 3.1 mph 7.4 mph 85 % 0 in
11:30 68.9 °F 64.4 °F 30.2 in SSW 3.8 mph 7.4 mph 82 % 0 in
11:35 69.3 °F 62.6 °F 30.2 in Calm   7.4 mph 81 % 0 in
11:40 70.2 °F 64.4 °F 30.2 in SSE 2.5 mph 4.3 mph 80 % 0 in
11:45 71.4 °F 66.2 °F 30.2 in SSW 3.6 mph 5.6 mph 80 % 0 in
11:50 72.1 °F 64.4 °F 30.2 in Calm   5.6 mph 78 % 0 in
11:55 72.9 °F 64.4 °F 30.2 in North 2.7 mph 4.9 mph 76 % 0 in
12:00 73.9 °F 66.2 °F 30.2 in NE 0.9 mph 4.7 mph 75 % 0 in
12:05 74.3 °F 66.2 °F 30.2 in Calm   4.7 mph 72 % 0 in
12:10 74.7 °F 64.4 °F 30.2 in SSE 5.6 mph 5.8 mph 70 % 0 in
12:16 74.5 °F 64.4 °F 30.2 in Calm   5.8 mph 70 % 0 in
12:21 75.4 °F 64.4 °F 30.2 in SSE 4.9 mph 6 mph 70 % 0 in
12:26 74.8 °F 64.4 °F 30.2 in SE 3.8 mph 6 mph 68 % 0 in
12:31 75.9 °F 64.4 °F 30.2 in SE 4.5 mph 6.3 mph 68 % 0 in
12:36 75.9 °F 64.4 °F 30.2 in SSE 4.3 mph 6.3 mph 67 % 0 in
12:41 77 °F 66.2 °F 30.2 in Calm   6 mph 67 % 0 in
12:46 77.7 °F 66.2 °F 30.2 in Calm   6 mph 66 % 0 in
12:51 77.9 °F 64.4 °F 30.2 in SSE 4.9 mph 7.8 mph 63 % 0 in
12:56 78.1 °F 64.4 °F 30.2 in Calm   7.8 mph 62 % 0 in
13:01 79 °F 66.2 °F 30.1 in SSE 4.5 mph 6.3 mph 63 % 0 in
13:06 79.7 °F 66.2 °F 30.1 in SSE 5.8 mph 6.5 mph 61 % 0 in
13:11 80.6 °F 66.2 °F 30.1 in Calm   6.5 mph 61 % 0 in
13:16 79.9 °F 64.4 °F 30.1 in SSW 1.3 mph 6.5 mph 59 % 0 in
13:21 77.9 °F 62.6 °F 30.1 in Calm   6.3 mph 58 % 0 in
13:26 78.6 °F 62.6 °F 30.1 in Calm   1.6 mph 58 % 0 in
13:31 78.6 °F 62.6 °F 30.1 in Calm   2.9 mph 58 % 0 in
13:36 77.7 °F 62.6 °F 30.1 in Calm   2.9 mph 58 % 0 in
13:41 77.2 °F 60.8 °F 30.1 in SSE 2.9 mph 2.9 mph 58 % 0 in
13:46 77.2 °F 62.6 °F 30.1 in Calm   2.9 mph 59 % 0 in
13:51 79.2 °F 64.4 °F 30.1 in ESE 4.9 mph 4.9 mph 60 % 0 in
13:56 77.7 °F 60.8 °F 30.1 in SSW 6.5 mph 6.5 mph 57 % 0 in
14:01 76.8 °F 60.8 °F 30.1 in Calm   6.5 mph 57 % 0 in
14:06 76.3 °F 60.8 °F 30.1 in Calm   6.5 mph 59 % 0 in
14:11 75.6 °F 60.8 °F 30.1 in Calm   6.5 mph 59 % 0 in
14:16 75.2 °F 60.8 °F 30.1 in South 1.1 mph 3.4 mph 59 % 0 in
14:21 75 °F 60.8 °F 30.1 in West 3.8 mph 7.8 mph 61 % 0 in
14:26 75 °F 60.8 °F 30.1 in SW 3.6 mph 7.8 mph 61 % 0 in
14:32 75.4 °F 60.8 °F 30.1 in Calm   4.5 mph 61 % 0 in
14:37 76.1 °F 62.6 °F 30.1 in Calm   4.9 mph 62 % 0 in
14:42 78.6 °F 66.2 °F 30.1 in SSE 0.9 mph 4.9 mph 63 % 0 in
14:47 78.1 °F 64.4 °F 30.1 in SSE 6.3 mph 6.7 mph 60 % 0 in
14:52 77.5 °F 62.6 °F 30.1 in SE 4.5 mph 6.9 mph 58 % 0 in
14:57 77.5 °F 62.6 °F 30.1 in Calm   6.9 mph 59 % 0 in
15:02 77.2 °F 60.8 °F 30.1 in SW 4.3 mph 7.8 mph 57 % 0 in
15:07 77.5 °F 62.6 °F 30.1 in Calm   7.8 mph 59 % 0 in
15:12 77.9 °F 62.6 °F 30.1 in SSW 1.6 mph 4.3 mph 59 % 0 in
15:17 78.6 °F 64.4 °F 30.1 in SSW 3.6 mph 4.7 mph 59 % 0 in
15:19 78.4 °F 62.6 °F 30.1 in South 3.6 mph 4.7 mph 57 % 0 in
15:24 78.3 °F 60.8 °F 30.1 in WSW 4.7 mph 4.7 mph 56 % 0 in
15:29 78.1 °F 60.8 °F 30.1 in West 5.6 mph 5.6 mph 55 % 0 in
15:34 77.4 °F 59 °F 30.1 in West 2.2 mph 6.5 mph 52 % 0 in
15:39 77.4 °F 59 °F 30.1 in Calm   6.5 mph 53 % 0 in
15:44 77.7 °F 60.8 °F 30.1 in West 4.7 mph 4.7 mph 54 % 0 in
15:49 78.3 °F 60.8 °F 30.1 in Calm   5.4 mph 56 % 0 in
15:54 78.8 °F 60.8 °F 30.1 in Calm   5.4 mph 55 % 0 in
15:59 79.2 °F 60.8 °F 30.1 in Calm   4 mph 53 % 0 in
16:04 79.2 °F 60.8 °F 30.1 in Calm   5.4 mph 52 % 0 in
16:10 80.2 °F 62.6 °F 30.1 in South 3.8 mph 5.4 mph 53 % 0 in
16:15 81 °F 60.8 °F 30.1 in South 3.6 mph 5.6 mph 50 % 0 in
16:20 81.3 °F 62.6 °F 30.1 in Calm   5.6 mph 51 % 0 in
16:25 81.1 °F 62.6 °F 30.1 in Calm   3.6 mph 52 % 0 in
16:30 81 °F 60.8 °F 30.1 in WNW 3.1 mph 4 mph 49 % 0 in
16:35 79.3 °F 59 °F 30.1 in SW 2.7 mph 4.3 mph 48 % 0 in
16:40 78.8 °F 59 °F 30.1 in Calm   4.3 mph 49 % 0 in
16:45 78.4 °F 59 °F 30.1 in Calm   2.7 mph 51 % 0 in
16:50 81.1 °F 62.6 °F 30.1 in SSE 0.9 mph 0.9 mph 53 % 0 in
16:55 80.8 °F 60.8 °F 30.1 in West 5.8 mph 8.5 mph 49 % 0 in
17:00 81.7 °F 62.6 °F 30.1 in West 5.4 mph 8.5 mph 50 % 0 in
17:05 81.9 °F 59 °F 30.1 in WNW 3.1 mph 7.4 mph 46 % 0 in
17:10 81.9 °F 60.8 °F 30.1 in Calm   7.4 mph 49 % 0 in
17:15 83.5 °F 60.8 °F 30.1 in Calm   3.1 mph 46 % 0 in
17:20 83.1 °F 60.8 °F 30.1 in Calm   5.8 mph 46 % 0 in
17:25 83.8 °F 60.8 °F 30.1 in West 4 mph 5.8 mph 46 % 0 in
17:30 81.7 °F 59 °F 30.1 in WSW 4.9 mph 7.4 mph 45 % 0 in
17:35 79.9 °F 57.2 °F 30.1 in Calm   7.4 mph 46 % 0 in
17:41 81 °F 60.8 °F 30.1 in Calm   3.1 mph 49 % 0 in
17:45 82.4 °F 60.8 °F 30.1 in SSW 3.1 mph 4.3 mph 48 % 0 in
17:51 82.2 °F 59 °F 30.1 in Calm   5.6 mph 45 % 0 in
17:56 81.9 °F 60.8 °F 30.1 in West 2.5 mph 5.6 mph 47 % 0 in
18:01 82 °F 60.8 °F 30.1 in SSW 4.3 mph 6.5 mph 47 % 0 in
18:06 81.3 °F 59 °F 30.1 in North 2.7 mph 6.5 mph 47 % 0 in
18:11 81 °F 59 °F 30.1 in North 3.6 mph 6.3 mph 47 % 0 in
18:16 80.4 °F 60.8 °F 30.1 in Calm   4.3 mph 49 % 0 in
18:21 80.1 °F 59 °F 30.1 in WNW 2.7 mph 3.6 mph 49 % 0 in
18:26 80.6 °F 60.8 °F 30.1 in West 2.7 mph 3.6 mph 49 % 0 in
18:31 80.8 °F 60.8 °F 30.1 in Calm   3.1 mph 49 % 0 in
18:36 79.9 °F 59 °F 30.1 in Calm   2.9 mph 49 % 0 in
18:41 79.5 °F 59 °F 30.1 in Calm   3.6 mph 49 % 0 in
18:46 79.2 °F 59 °F 30.1 in Calm   3.6 mph 50 % 0 in
18:51 79 °F 59 °F 30.1 in NNW 2.9 mph 4.3 mph 51 % 0 in
18:56 78.1 °F 59 °F 30.1 in Calm   4.7 mph 52 % 0 in
19:01 77.4 °F 60.8 °F 30.1 in Calm   4.9 mph 54 % 0 in
19:06 76.8 °F 60.8 °F 30.1 in North 5.4 mph 6.3 mph 58 % 0 in
19:11 75.7 °F 60.8 °F 30.1 in WNW 6.5 mph 7.4 mph 61 % 0 in
19:16 75.4 °F 60.8 °F 30.1 in NNW 5.6 mph 7.4 mph 61 % 0 in
19:21 74.8 °F 60.8 °F 30.1 in NNW 5.4 mph 7.4 mph 63 % 0 in
19:26 74.3 °F 62.6 °F 30.1 in North 4.3 mph 7.4 mph 64 % 0 in
19:31 74.3 °F 62.6 °F 30.1 in North 4.9 mph 7.4 mph 64 % 0 in
19:36 74.3 °F 62.6 °F 30.1 in NNW 5.6 mph 5.6 mph 65 % 0 in
19:41 74.5 °F 62.6 °F 30.1 in North 2.2 mph 5.6 mph 66 % 0 in
19:46 74.3 °F 62.6 °F 30.1 in NE 5.4 mph 5.8 mph 65 % 0 in
19:51 74.1 °F 62.6 °F 30.1 in NW 6 mph 7.4 mph 65 % 0 in
19:56 74.3 °F 62.6 °F 30.1 in NNW 5.6 mph 7.4 mph 64 % 0 in
20:02 73.9 °F 62.6 °F 30.1 in NNW 3.6 mph 7.4 mph 65 % 0 in
20:07 74.1 °F 60.8 °F 30.1 in North 2 mph 7.4 mph 64 % 0 in
20:12 73.8 °F 62.6 °F 30.1 in North 3.1 mph 7.6 mph 65 % 0 in
20:17 73.4 °F 60.8 °F 30.1 in North 3.1 mph 8.5 mph 65 % 0 in
20:22 73 °F 60.8 °F 30.1 in NNE 6.3 mph 8.5 mph 65 % 0 in
20:27 73.2 °F 60.8 °F 30.1 in NNE 3.1 mph 6.5 mph 66 % 0 in
20:32 73.2 °F 60.8 °F 30.1 in North 2.7 mph 6 mph 66 % 0 in
20:37 72.9 °F 60.8 °F 30.1 in North 5.6 mph 6.5 mph 66 % 0 in
20:42 72.5 °F 60.8 °F 30.1 in North 2.9 mph 6.5 mph 66 % 0 in
20:47 72.1 °F 60.8 °F 30.1 in NE 5.4 mph 7.4 mph 67 % 0 in
20:52 71.8 °F 60.8 °F 30.1 in NNE 5.4 mph 7.4 mph 67 % 0 in
20:57 71.2 °F 60.8 °F 30.1 in NNE 3.1 mph 6.5 mph 68 % 0 in
21:02 70.7 °F 60.8 °F 30.1 in NE 2.7 mph 5.8 mph 68 % 0 in
21:07 70.5 °F 59 °F 30.1 in Calm   5.8 mph 69 % 0 in
21:12 70 °F 59 °F 30.1 in Calm   4.9 mph 69 % 0 in
21:17 69.8 °F 59 °F 30.1 in North 3.1 mph 4.9 mph 70 % 0 in
21:22 69.4 °F 59 °F 30.1 in NNE 4 mph 4.5 mph 71 % 0 in
21:27 69.3 °F 59 °F 30.1 in Calm   4.5 mph 71 % 0 in
21:32 68.7 °F 59 °F 30.1 in Calm   4 mph 72 % 0 in
21:37 68.2 °F 59 °F 30.1 in Calm     72 % 0 in
21:42 67.8 °F 59 °F 30.1 in Calm   3.6 mph 73 % 0 in
21:47 67.5 °F 59 °F 30.1 in Calm   3.8 mph 74 % 0 in
21:52 67.1 °F 59 °F 30.1 in Calm   3.8 mph 75 % 0 in
21:58 66.7 °F 59 °F 30.1 in Calm   0.9 mph 76 % 0 in
22:03 66.2 °F 59 °F 30.1 in Calm   1.3 mph 77 % 0 in
22:08 65.8 °F 59 °F 30.1 in Calm   1.3 mph 77 % 0 in
22:09 65.8 °F 59 °F 30.1 in Calm   1.3 mph 77 % 0 in
22:14 65.5 °F 59 °F 30.1 in Calm   1.3 mph 78 % 0 in
22:19 65.1 °F 59 °F 30.1 in Calm     79 % 0 in
22:24 64.8 °F 59 °F 30.1 in Calm     79 % 0 in
22:29 64.4 °F 59 °F 30.1 in Calm   2.5 mph 80 % 0 in
22:34 64.2 °F 59 °F 30.1 in Calm   2.5 mph 80 % 0 in
22:39 63.9 °F 57.2 °F 30.1 in Calm   0.9 mph 81 % 0 in
22:44 63.5 °F 57.2 °F 30.1 in Calm     81 % 0 in
22:50 63.5 °F 57.2 °F 30.1 in Calm     81 % 0 in
22:55 63 °F 57.2 °F 30.1 in Calm     82 % 0 in
23:00 62.6 °F 57.2 °F 30.1 in Calm     82 % 0 in
23:05 62.4 °F 57.2 °F 30.1 in Calm     83 % 0 in
23:10 62.1 °F 57.2 °F 30.1 in Calm     84 % 0 in
23:15 61.9 °F 57.2 °F 30.1 in Calm     84 % 0 in
23:20 61.7 °F 57.2 °F 30.1 in Calm     84 % 0 in
23:25 61.5 °F 57.2 °F 30.1 in Calm     85 % 0 in
23:30 61.5 °F 57.2 °F 30.1 in Calm     86 % 0 in
23:35 61.5 °F 57.2 °F 30.1 in Calm     86 % 0 in
23:40 61.3 °F 57.2 °F 30.1 in Calm     86 % 0 in
23:45 61.2 °F 57.2 °F 30.1 in Calm     86 % 0 in
23:50 61 °F 57.2 °F 30.1 in Calm     87 % 0 in
23:55 60.8 °F 57.2 °F 30.1 in Calm     87 % 0 in
Le Gheer Warneton
Courtoisie de Weather Underground - 2.25 mb

Mise a jour : 17-12-17 08:53:11
Généré par Cumulus 1.9.4 (1099)